DMSP 5D-2 F13 DEB, 40521

Orbit data source: Space-Track

DMSP 5D-2 F13 DEB, 40521 is space debris in SSO originally from a launch on Fri, 24 Mar 1995 UTC launched from the Air Force Western Test Range (AFWTR). Debris objects in space refer to the collection of defunct objects orbiting the Earth. Examples of debris include non-operational satellites, rocket bodies, and fragments generated from explosions, collisions, or faulty payload assembly.

Loading next visibility...
Identifier
40521, 1995-015DH
Orbit
SSO
Country
Flag of USUS
Related business
Manufacturer
Unknown
Mission
Spacecraft
Bus & Motor
Unknown
Mass
Unknown
Launch date (UTC)
1995-03-24 (31 years ago)
Launch vehicle
Unknown
Launch site
Air Force Western Test Range (AFWTR)
Object type
Payload
Rocket body
Debris
Shape & HBR
Unknown shape, 0.1 m
Radar Cross Section
Medium (>0.1 m² and <1 m²)

Expand to show TLE details & history
Last TLE update: 3 days ago

TLE from 3 days ago
0 DMSP 5D-2 F13 DEB
1 40521U 95015DH  26169.97548039  .00008238  00000-0  15820-2 0  9990
2 40521  98.5863 256.1121 0023031 100.6195 259.7601 14.63784069588539
Epoch: 2026-06-18T23:24Z
TLE epoch observation values (Epoch: 2026-06-18T23:24:41.505Z)
Latitude
-0.00008°
Longitude
-2.27192°
Altitude
686.887 km
Speed
7.511 km/s
True Right ascension
17h 04m 26s
True Declination
0° 00' 00"
Sunlit
Object was in full shadow at epoch
Visualization orbit readout
Latitude
Unknown
Longitude
Unknown
Altitude
Unknown
Speed
Unknown
Apparent Right ascension
Unknown
Apparent Declination
Unknown
Sunlit
N/A
Visualization observer readout
Local Sidereal Time
21:49:28
Azimuth
Unknown
Elevation
Unknown
Doppler factor
Unknown
Orbital elements
Apogee altitude
694.327 km
Perigee altitude
661.825 km
Semi-major axis
7,056.213 km
Eccentricity
0.0023
Inclination
98.5863°
RAAN
256.1121°
Arg. of periapsis
100.6195°
True anomaly
259.50052°
Mean anomaly
259.7601°
Eccentric anomaly
259.6303°
Mean motion
3.66172 °/min
Orbital period
98.31 mins
BSTAR
0.001582

Documentation

Showing up to 5 results
|